Regional Weather Roundup
Issued by NWS New Orleans/Baton Rouge, LA

Home | Current Version | Previous Version | Graphics & Text | Print | Product List | Glossary On
Versions: 1 2 3 4 5 6 7 8 9 10 11 12 13 14 15 16 17 18 19 20 21 22 23 24 25 26 27 28 29 30 31 32 33 34 35 36 37 38 39 40 41 42 43 44 45 46 47 48 49 50
743
ASUS44 KLIX 170901
RWRLIX
NEW ORLEANS REGIONAL WEATHER ROUNDUP
NATIONAL WEATHER SERVICE NEW ORLEANS LA
300 AM CST WED DEC 17 2014

NOTE: "FAIR" INDICATES FEW OR NO CLOUDS BELOW 12,000 FEET WITH NO
      SIGNIFICANT WEATHER AND/OR OBSTRUCTIONS TO VISIBILITY.
      SKY/WX - SKY CONDITION AND SIGNIFICANT WEATHER.
      TMP - AIR TEMPERATURE.     DP    - DEWPOINT TEMPERATURE.
      RH  - RELATIVE HUMIDITY.   PRES  - PRESSURE.
      HI  - HEAT INDEX.          WCI   - WIND CHILL INDEX.

*  THESE STATIONS ARE NOT NWS OR FAA STATIONS AND ARE NOT UNDER
   NWS QUALITY CONTROL.

LAZ038-040-048-061>063-065>067-069-171000-
SOUTHEAST LOUISIANA

CITY           SKY/WX    TMP DP  RH WIND       PRES   REMARKS
N.O. AUDUBON   NOT AVBL
N.O. INTL ARPT CLEAR     50  38  63 NE12      30.25F
N.O. LAKEFRONT CLEAR     52  41  66 NE18      30.27F
N.O. DOWNTOWN*   N/A     50  36  57 NE6       30.26S
SLIDELL        CLEAR     36  33  89 CALM      30.26F
BATON ROUGE    CLEAR     38  35  89 CALM      30.25F
BOOTHVILLE     CLEAR     54  45  71 N7        30.25S
BELLE CHASSE   CLEAR     46  38  73 NE6       30.26F
BOGALUSA*        N/A     38  34  87 CALM      30.27F
GALLIANO*      NOT AVBL
NEW ROADS*     NOT AVBL
GONZALES*      NOT AVBL
HAMMOND*       NOT AVBL
HOUMA*         CLEAR     44  39  83 NE6       30.24F
PORT FOURCHON* SUNNY     54  45  71 NE9       30.28F

$$

MSZ070-080>082-171000-
SOUTHERN MISSISSIPPI

CITY           SKY/WX    TMP DP  RH WIND       PRES   REMARKS
MCCOMB         CLEAR     42  35  76 N3        30.24F
GULFPORT       CLEAR     42  36  79 N6        30.26R
BILOXI         CLEAR     43  37  80 N8        30.26R
PASCAGOULA     CLEAR     39  35  86 N3        30.26S

$$

COASTAL OBSERVATIONS
LAKE AND NEARSHORE STATIONS

STATION/POSITION TIME  TEMP    WIND        PRES    WAVE
                       AIR SEA DIR/SP/G            HT/PER
                 (UTC) (F)     (DEG/KT/KT) (MB)    (FT/S)
PASCAGOULA       0800   45     360/  7/ 10 1023.6
WAVELAND YACHT   0800   47      10/ 10/ 12 1023.9
GRAND ISLE       0800   54 63   30/ 13/ 15 1024.9
SOUTHWEST PASS   0800   56                 1024.0
NEW CANAL        0800   51 58   40/ 15/ 17 1025.0
SHELL BEACH      0800   52      20/ 16/ 18 1024.3

OFFSHORE STATIONS

STATION/POSITION TIME  TEMP    WIND        PRES    WAVE
                       AIR SEA DIR/SP/G            HT/PER
                 (UTC) (F)     (DEG/KT/KT) (MB)    (FT/S)
64 S DAUPHIN ISL 0900   60 74   20/ 12/ 17 1022.7    2/ 4

$$




USA.gov is the U.S. government's official web portal to all federal, state and local government web resources and services.